Yakutat, AK

8:07 PM AKDT on August 21, 2017 (GMT -0800)
Yakutat

Weather History for PAYA - November, 2012

Change the Weather History Date:

Friday, November 23, 2012

  Actual Average Record
Temperature  
Mean Temperature 32 °F 31 °F  
Max Temperature 42 °F 37 °F 51 °F (2002)
Min Temperature 22 °F 25 °F -2 °F (2006)
Degree Days  
Heating Degree Days 33 34  
Month to date heating degree days 733 739  
Since 1 July heating degree days 2857 2658  
Cooling Degree Days 0    
Month to date cooling degree days 0  
Year to date cooling degree days 0  
Moisture  
Dew Point 16 °F    
Average Humidity 0    
Maximum Humidity 0    
Minimum Humidity 0    
Precipitation  
Precipitation 0.00 in 0.48 in 2.41 in (1992)
Month to date precipitation 6.43 11.09  
Year to date precipitation 99.37 135.48  
Snow  
Snow 0.00 in 0.70 in 11.90 in (1948)
Month to date snowfall 2.6 12.8  
Since 1 July snowfall 20.7 15.3  
Since 1 September snowfall 20.7 15.3  
Snow Depth T in    
Sea Level Pressure  
Sea Level Pressure 29.43 in    
Wind  
Wind Speed 7 mph (ENE)    
Max Wind Speed 17 mph    
Max Gust Speed 25 mph    
Visibility 10 miles    
Events      
T = Trace of Precipitation, MM = Missing Value Source: NWS Daily Summary

Daily Weather History Graph

Daily Weather History Graph

Search for Another Location

Airport or City:

Trip Planner

Search our weather history database for the weather conditions in past years. The results will help you decide how hot, cold, wet, or windy it might be!

Date:

Astronomy

Nov. 23, 2012 Rise Set
Actual Time 8:34 AM AKST 3:35 PM AKST
Civil Twilight 7:43 AM AKST 4:26 PM AKST
Nautical Twilight 6:50 AM AKST 5:19 PM AKST
Astronomical Twilight 6:01 AM AKST 6:08 PM AKST
Moon 1:47 PM AKST (11/23) 3:02 AM AKST (11/23)
Length of Visible Light 8h 43m
Length of Day
7h 01m
Waxing Gibbous, 81% of the Moon is Illuminated
Nov 23
Waxing Gibbous
Nov 28
Full
Dec 6
Last Quarter
Dec 12
New
Dec 19
First Quarter

Hourly Weather History & Observations

Time (AKST) Temp. Windchill Dew Point Humidity Pressure Visibility Wind Dir Wind Speed Gust Speed Precip Events Conditions
12:03 AM 37.4 °F 29.3 °F 15.8 °F 41% 29.31 in 10.0 mi ENE 12.7 mph 17.3 mph N/A   Mostly Cloudy
12:53 AM 39.0 °F 31.8 °F 15.1 °F 38% 29.33 in 10.0 mi East 11.5 mph 19.6 mph N/A   Mostly Cloudy
1:53 AM 39.0 °F 31.8 °F 15.1 °F 38% 29.36 in 10.0 mi East 11.5 mph - N/A   Mostly Cloudy
2:53 AM 39.0 °F 32.8 °F 16.0 °F 39% 29.36 in 10.0 mi ENE 9.2 mph - N/A   Mostly Cloudy
3:53 AM 39.0 °F 31.8 °F 16.0 °F 39% 29.37 in 10.0 mi ENE 11.5 mph - N/A   Mostly Cloudy
4:53 AM 37.0 °F 29.3 °F 15.1 °F 41% 29.38 in 10.0 mi East 11.5 mph - N/A   Scattered Clouds
5:53 AM 37.9 °F 30.0 °F 15.1 °F 39% 29.39 in 10.0 mi ENE 12.7 mph - N/A   Partly Cloudy
6:53 AM 37.9 °F 30.9 °F 15.1 °F 39% 29.40 in 10.0 mi ENE 10.4 mph - N/A   Overcast
7:53 AM 37.9 °F 31.5 °F 15.1 °F 39% 29.41 in 10.0 mi ENE 9.2 mph - N/A   Mostly Cloudy
8:53 AM 37.0 °F 30.4 °F 14.0 °F 39% 29.42 in 10.0 mi East 9.2 mph 17.3 mph N/A   Clear
9:53 AM 37.9 °F 32.1 °F 14.0 °F 38% 29.42 in 10.0 mi East 8.1 mph - N/A   Clear
10:53 AM 39.9 °F 33.9 °F 14.0 °F 35% 29.43 in 10.0 mi ENE 9.2 mph - N/A   Clear
11:53 AM 41.0 °F 35.8 °F 14.0 °F 33% 29.44 in 10.0 mi East 8.1 mph - N/A   Clear
12:53 PM 41.0 °F 33.9 °F 14.0 °F 33% 29.44 in 10.0 mi ENE 12.7 mph - N/A   Clear
1:53 PM 41.0 °F 35.2 °F 14.0 °F 33% 29.44 in 10.0 mi ENE 9.2 mph - N/A   Clear
2:53 PM 39.0 °F 33.4 °F 15.1 °F 38% 29.44 in 10.0 mi NE 8.1 mph - N/A   Clear
3:53 PM 37.9 °F 33.5 °F 15.1 °F 39% 29.44 in 10.0 mi NE 5.8 mph - N/A   Clear
4:53 PM 33.1 °F - 16.0 °F 50% 29.45 in 10.0 mi Calm Calm - N/A   Clear
5:53 PM 37.0 °F 33.3 °F 15.1 °F 41% 29.45 in 10.0 mi East 4.6 mph - N/A   Clear
6:53 PM 33.1 °F 28.7 °F 17.1 °F 52% 29.47 in 10.0 mi NE 4.6 mph - N/A   Clear
7:53 PM 26.1 °F - 19.0 °F 75% 29.48 in 10.0 mi Calm Calm - N/A   Clear
8:53 PM 26.1 °F - 19.0 °F 75% 29.49 in 10.0 mi Calm Calm - N/A   Clear
9:53 PM 24.1 °F - 19.0 °F 81% 29.50 in 10.0 mi Calm Calm - N/A   Clear
10:53 PM 23.0 °F - 18.0 °F 81% 29.52 in 10.0 mi Calm Calm - N/A   Clear
11:53 PM 21.9 °F - 18.0 °F 85% 29.52 in 10.0 mi Calm Calm - N/A   Clear